Hourly Weather Elista

Today, 14 July, Tuesday

Time Temperature Precipitation Wind Pressure Humidity
00:00 +27°C° 0 mm 5 mps 735 mmHg 58%
01:00 +26°C° 0 mm 6 mps 735 mmHg 61%
02:00 +26°C° 0 mm 6 mps 735 mmHg 64%
03:00 +24°C° 0 mm 7 mps 735 mmHg 67%
04:00 +24°C° 0 mm 6 mps 736 mmHg 69%
05:00 +24°C° 0 mm 6 mps 736 mmHg 70%
06:00 +24°C° 0 mm 6 mps 737 mmHg 71%
07:00 +26°C° 0 mm 6 mps 737 mmHg 66%
08:00 +27°C° 0 mm 5 mps 738 mmHg 61%
09:00 +28°C° 0 mm 5 mps 738 mmHg 55%
10:00 +29°C° 0 mm 6 mps 738 mmHg 49%
11:00 +32°C° 0 mm 6 mps 739 mmHg 42%
12:00 +33°C° 0 mm 7 mps 739 mmHg 36%
13:00 +34°C° 0 mm 7 mps 739 mmHg 34%
14:00 +34°C° 0 mm 7 mps 739 mmHg 31%
15:00 +35°C° 0 mm 6 mps 739 mmHg 29%
16:00 +34°C° 0 mm 6 mps 739 mmHg 31%
17:00 +34°C° 0 mm 6 mps 739 mmHg 33%
18:00 +33°C° 0 mm 6 mps 739 mmHg 35%
19:00 +32°C° 0 mm 5 mps 740 mmHg 39%
20:00 +30°C° 0 mm 4 mps 740 mmHg 43%
21:00 +28°C° 0 mm 3 mps 741 mmHg 47%
22:00 +27°C° 0 mm 3 mps 741 mmHg 50%
23:00 +27°C° 0 mm 4 mps 741 mmHg 53%

Tomorrow, 15 July, Wednesday

Time Temperature Precipitation Wind Pressure Humidity
00:00 +26°C° 0 mm 4 mps 741 mmHg 55%
01:00 +25°C° 0 mm 4 mps 742 mmHg 58%
02:00 +23°C° 0 mm 4 mps 742 mmHg 61%
03:00 +23°C° 0 mm 4 mps 742 mmHg 64%
04:00 +23°C° 0.2 mm 4 mps 743 mmHg 63%
05:00 +22°C° 0.2 mm 4 mps 743 mmHg 62%
06:00 +22°C° 0.2 mm 5 mps 743 mmHg 61%
07:00 +23°C° 0.2 mm 5 mps 744 mmHg 55%
08:00 +25°C° 0.2 mm 5 mps 744 mmHg 50%
09:00 +26°C° 0.2 mm 5 mps 745 mmHg 44%
10:00 +26°C° 0 mm 5 mps 745 mmHg 42%
11:00 +27°C° 0 mm 5 mps 744 mmHg 39%
12:00 +28°C° 0 mm 5 mps 744 mmHg 36%
13:00 +29°C° 0 mm 5 mps 744 mmHg 35%
14:00 +30°C° 0 mm 5 mps 744 mmHg 33%
15:00 +32°C° 0 mm 5 mps 744 mmHg 31%
16:00 +30°C° 0 mm 4 mps 744 mmHg 31%
17:00 +30°C° 0 mm 4 mps 744 mmHg 31%
18:00 +30°C° 0 mm 4 mps 744 mmHg 31%
19:00 +29°C° 0 mm 4 mps 744 mmHg 33%
20:00 +27°C° 0 mm 3 mps 744 mmHg 35%
21:00 +26°C° 0 mm 3 mps 744 mmHg 38%
22:00 +25°C° 0 mm 3 mps 744 mmHg 41%
23:00 +24°C° 0 mm 3 mps 744 mmHg 45%

Day after tomorrow, 16 July, Thursday

Time Temperature Precipitation Wind Pressure Humidity
00:00 +22°C° 0 mm 4 mps 744 mmHg 49%
01:00 +21°C° 0 mm 4 mps 744 mmHg 52%
02:00 +21°C° 0 mm 4 mps 744 mmHg 55%
03:00 +20°C° 0 mm 4 mps 744 mmHg 59%
04:00 +20°C° 0 mm 4 mps 744 mmHg 58%
05:00 +21°C° 0 mm 3 mps 744 mmHg 57%
06:00 +21°C° 0 mm 3 mps 745 mmHg 56%
07:00 +22°C° 0 mm 3 mps 745 mmHg 51%
08:00 +24°C° 0 mm 2 mps 745 mmHg 47%
09:00 +25°C° 0 mm 1 mps 745 mmHg 42%
10:00 +26°C° 0 mm 2 mps 745 mmHg 39%
11:00 +27°C° 0 mm 2 mps 744 mmHg 36%
12:00 +28°C° 0 mm 3 mps 744 mmHg 32%
13:00 +29°C° 0 mm 3 mps 744 mmHg 31%
14:00 +30°C° 0 mm 3 mps 743 mmHg 29%
15:00 +31°C° 0 mm 3 mps 743 mmHg 27%
16:00 +30°C° 0 mm 3 mps 743 mmHg 27%
17:00 +30°C° 0 mm 3 mps 743 mmHg 26%
18:00 +30°C° 0 mm 3 mps 742 mmHg 26%
19:00 +28°C° 0 mm 3 mps 743 mmHg 28%
20:00 +27°C° 0 mm 3 mps 743 mmHg 31%
21:00 +25°C° 0 mm 3 mps 743 mmHg 33%
22:00 +25°C° 0 mm 3 mps 742 mmHg 34%
23:00 +24°C° 0 mm 3 mps 742 mmHg 35%

17 July, Friday

Time Temperature Precipitation Wind Pressure Humidity
00:00 +22°C° 0 mm 4 mps 742 mmHg 37%
01:00 +22°C° 0 mm 4 mps 742 mmHg 38%
02:00 +21°C° 0 mm 4 mps 742 mmHg 39%
03:00 +21°C° 0 mm 5 mps 742 mmHg 41%
04:00 +21°C° 0 mm 5 mps 742 mmHg 41%
05:00 +22°C° 0 mm 5 mps 742 mmHg 42%
06:00 +22°C° 0 mm 5 mps 742 mmHg 43%
07:00 +25°C° 0 mm 5 mps 742 mmHg 39%
08:00 +26°C° 0 mm 5 mps 742 mmHg 35%
09:00 +28°C° 0 mm 5 mps 742 mmHg 31%
10:00 +29°C° 0 mm 4 mps 742 mmHg 29%
11:00 +30°C° 0 mm 3 mps 742 mmHg 27%
12:00 +31°C° 0 mm 2 mps 742 mmHg 24%
13:00 +32°C° 0 mm 2 mps 742 mmHg 24%
14:00 +32°C° 0 mm 2 mps 742 mmHg 23%
15:00 +34°C° 0 mm 2 mps 741 mmHg 23%
16:00 +33°C° 0 mm 3 mps 741 mmHg 23%
17:00 +33°C° 0 mm 3 mps 741 mmHg 24%
18:00 +33°C° 0 mm 3 mps 741 mmHg 24%
19:00 +31°C° 0 mm 3 mps 741 mmHg 25%
20:00 +29°C° 0 mm 3 mps 741 mmHg 25%
21:00 +28°C° 0 mm 4 mps 742 mmHg 26%
22:00 +28°C° 0 mm 5 mps 742 mmHg 28%
23:00 +27°C° 0 mm 5 mps 742 mmHg 30%

18 July, Saturday

Time Temperature Precipitation Wind Pressure Humidity
00:00 +26°C° 0 mm 6 mps 742 mmHg 32%
01:00 +26°C° 0 mm 6 mps 742 mmHg 32%
02:00 +24°C° 0 mm 6 mps 742 mmHg 33%
03:00 +23°C° 0 mm 5 mps 742 mmHg 34%
04:00 +23°C° 0 mm 5 mps 742 mmHg 34%
05:00 +23°C° 0 mm 5 mps 742 mmHg 34%
06:00 +25°C° 0 mm 5 mps 743 mmHg 34%
07:00 +26°C° 0 mm 5 mps 743 mmHg 31%
08:00 +28°C° 0 mm 5 mps 743 mmHg 28%
09:00 +30°C° 0 mm 5 mps 743 mmHg 26%
10:00 +32°C° 0 mm 4 mps 743 mmHg 24%
11:00 +33°C° 0 mm 4 mps 743 mmHg 23%
12:00 +34°C° 0 mm 3 mps 743 mmHg 21%
13:00 +35°C° 0 mm 3 mps 743 mmHg 21%
14:00 +35°C° 0 mm 3 mps 743 mmHg 21%
15:00 +35°C° 0 mm 3 mps 743 mmHg 20%
16:00 +35°C° 0 mm 3 mps 743 mmHg 20%
17:00 +35°C° 0 mm 3 mps 743 mmHg 21%
18:00 +35°C° 0 mm 3 mps 742 mmHg 21%
19:00 +33°C° 0 mm 4 mps 743 mmHg 23%
20:00 +30°C° 0 mm 4 mps 743 mmHg 26%
21:00 +28°C° 0 mm 4 mps 743 mmHg 29%
22:00 +28°C° 0 mm 4 mps 743 mmHg 29%
23:00 +27°C° 0 mm 4 mps 743 mmHg 29%

19 July, Sunday

Time Temperature Precipitation Wind Pressure Humidity
00:00 +27°C° 0 mm 5 mps 743 mmHg 29%
01:00 +26°C° 0 mm 4 mps 743 mmHg 30%
02:00 +25°C° 0 mm 4 mps 743 mmHg 32%
03:00 +25°C° 0 mm 4 mps 743 mmHg 33%
04:00 +25°C° 0 mm 4 mps 743 mmHg 34%
05:00 +25°C° 0 mm 4 mps 743 mmHg 36%
06:00 +25°C° 0 mm 3 mps 743 mmHg 37%
07:00 +27°C° 0 mm 3 mps 743 mmHg 34%
08:00 +29°C° 0 mm 3 mps 743 mmHg 31%
09:00 +33°C° 0 mm 3 mps 743 mmHg 28%
10:00 +34°C° 0 mm 3 mps 743 mmHg 26%
11:00 +35°C° 0 mm 3 mps 743 mmHg 23%
12:00 +36°C° 0 mm 3 mps 743 mmHg 21%
13:00 +36°C° 0 mm 3 mps 743 mmHg 20%
14:00 +36°C° 0 mm 3 mps 742 mmHg 19%
15:00 +37°C° 0 mm 3 mps 742 mmHg 18%
16:00 +37°C° 0 mm 3 mps 741 mmHg 19%
17:00 +36°C° 0 mm 3 mps 741 mmHg 19%
18:00 +36°C° 0 mm 3 mps 741 mmHg 19%
19:00 +34°C° 0 mm 3 mps 741 mmHg 21%
20:00 +31°C° 0 mm 3 mps 741 mmHg 23%
21:00 +30°C° 0 mm 3 mps 741 mmHg 25%
22:00 +29°C° 0 mm 3 mps 741 mmHg 27%
23:00 +28°C° 0 mm 3 mps 740 mmHg 28%
Show more